This demonstration page uses our WeatherBlox Daily Observations layout. Learn more.

Left ArrowRight Arrow

Hourly Observations for May 31, 2020

Temp ( °F °C ) Dew Point ( °F °C ) Humidity (%) Winds ( mph kmh ) Pressure ( in mb ) Visibility ( mi km ) Precip ( " mm )
12:53 am 00:53 Clear 75 23.9 49 9.4 40 40 ESE 12 19 29.96 1015 10 16 0.00 0.00
1:53 am 01:53 Clear 74 23.3 50 10 43 43 ESE 12 19 29.96 1015 10 16 0.00 0.00
2:53 am 02:53 Clear 72 22.2 49 9.4 44 44 SE 13 20 29.96 1015 10 16 0.00 0.00
3:53 am 03:53 Clear 69 20.6 49 9.4 49 49 SE 9 15 29.96 1015 10 16 0.00 0.00
4:53 am 04:53 Clear 67 19.4 49 9.4 53 53 ESE 7 11 29.98 1015 10 16 0.00 0.00
5:53 am 05:53 Clear 65 18.3 50 10 59 59 ESE 9 15 29.98 1015 10 16 0.00 0.00
6:53 am 06:53 Sunny 62 16.7 49 9.4 62 62 E 6 9 30.01 1016 10 16 0.00 0.00
7:53 am 07:53 Sunny 67 19.4 51 10.6 57 57 ESE 8 13 30.03 1017 10 16 0.00 0.00
8:53 am 08:53 Sunny 72 22.2 52 11.1 50 50 SE 13 20 30.04 1017 10 16 0.00 0.00
9:53 am 09:53 Sunny 76 24.4 52 11.1 43 43 SSE 10 17 30.05 1018 10 16 0.00 0.00
10:53 am 10:53 Sunny 80 26.7 51 10.6 37 37 ESE 14 22 30.04 1017 10 16 0.00 0.00
11:53 am 11:53 Sunny 80 26.7 50 10 35 35 SSE 13 20 30.03 1017 10 16 0.00 0.00
12:53 pm 12:53 Sunny 81 27.2 50 10 34 34 SE 16 26 30.03 1017 10 16 0.00 0.00
1:53 pm 13:53 Sunny 82 27.8 49 9.4 32 32 ESE 9 15 30.01 1016 10 16 0.00 0.00
2:53 pm 14:53 Sunny 84 28.9 47 8.3 27 27 SE 7 11 29.98 1015 10 16 0.00 0.00
3:53 pm 15:53 Sunny 84 28.9 46 7.8 27 27 SE 15 24 29.97 1015 10 16 0.00 0.00
4:53 pm 16:53 Sunny 88 31.1 47 8.3 24 24 ESE 13 20 29.93 1014 10 16 0.00 0.00
5:53 pm 17:53 Sunny 87 30.6 46 7.8 24 24 E 10 17 29.92 1013 10 16 0.00 0.00
6:53 pm 18:53 Sunny 86 30 47 8.3 26 26 ESE 16 26 29.92 1013 10 16 0.00 0.00
7:53 pm 19:53 Sunny 84 28.9 46 7.8 27 27 SE 15 24 29.93 1014 10 16 0.00 0.00
8:53 pm 20:53 Sunny 81 27.2 51 10.6 35 35 SE 13 20 29.93 1014 10 16 0.00 0.00
9:53 pm 21:53 Clear 77 25 50 10 39 39 SE 9 15 29.93 1013 10 16 0.00 0.00
10:53 pm 22:53 Clear 76 24.4 52 11.1 43 43 SSE 10 17 29.94 1014 10 16 0.00 0.00
11:53 pm 23:53 Clear 74 23.3 55 12.8 52 52 SE 6 9 29.97 1015 10 16 0.00 0.00

Powered by AerisWeather